DW5274 Weather Reports


Display with metric or nautical units.
time (UTC)temp
F
wind
direction
speed
MPH
gust
MPH
rain 1hr
in
rain 24hr
in
rain mn
in
humidity
%
barometer
mb
20260906221504 72 344 0.0 0.0 0.00 0.00 0.00 38 1009.8
20260906220046 72 344 0.0 0.0 0.00 0.00 0.00 40 1009.4
20260906214546 73 345 0.0 0.0 0.00 0.00 0.00 39 1009.5
20260906213028 73 346 0.0 0.0 0.00 0.00 0.00 39 1009.4
20260906211527 73 348 0.0 0.0 0.00 0.00 0.00 40 1009.2
20260906210007 73 355 0.0 0.0 0.00 0.00 0.00 41 1009.4
20260906204507 73 355 0.0 0.0 0.00 0.00 0.00 38 1009.7
20260906203107 73 355 0.0 0.0 0.00 0.00 0.00 40 1009.8
20260906201548 73 355 0.0 0.0 0.00 0.00 0.00 39 1009.9
20260906200045 72 348 0.0 0.0 0.00 0.00 0.00 40 1010.1
20260906194525 71 335 0.0 0.0 0.00 0.00 0.00 42 1010.4
20260906193023 70 333 0.0 0.0 0.00 0.00 0.00 42 1010.6
20260906191503 69 333 0.0 0.0 0.00 0.00 0.00 43 1010.8
20260906190003 69 328 0.0 0.0 0.00 0.00 0.00 45 1010.9
20260906184544 69 328 0.0 0.0 0.00 0.00 0.00 46 1011.2
20260906183042 68 327 0.0 0.0 0.00 0.00 0.00 45 1011.2
20260906181537 68 325 0.0 0.0 0.00 0.00 0.00 47 1011.3
20260906180036 68 325 0.0 0.0 0.00 0.00 0.00 45 1011.4
20260906174502 67 325 0.0 0.0 0.00 0.00 0.00 47 1011.5
20260906173100 67 321 0.0 0.0 0.00 0.00 0.00 55 1011.5
20260906171549 66 321 0.0 0.0 0.00 0.00 0.00 58 1011.7
20260906170045 65 321 0.0 0.0 0.00 0.00 0.00 58 1011.7
20260906164522 65 336 0.0 0.0 0.00 0.00 0.00 56 1011.8
20260906163022 65 336 0.0 0.0 0.00 0.00 0.00 59 1011.7
20260906161504 64 336 0.0 0.0 0.00 0.00 0.00 61 1011.7
20260906160006 61 336 0.0 0.0 0.00 0.00 0.00 68 1011.8
20260906154546 59 336 0.0 0.0 0.00 0.00 0.00 72 1011.9
20260906153045 58 336 0.0 0.0 0.00 0.00 0.00 77 1012.0
20260906151526 57 340 0.0 0.0 0.00 0.00 0.00 80 1011.8
20260906150027 55 340 0.0 0.0 0.00 0.00 0.00 82 1011.5
20260906144507 55 340 0.0 0.0 0.00 0.00 0.00 83 1011.4
20260906143005 54 340 0.0 0.0 0.00 0.00 0.00 83 1011.2
20260906141549 54 340 0.0 0.0 0.00 0.00 0.00 83 1011.1
20260906140055 54 321 0.0 0.0 0.00 0.00 0.00 82 1011.2
20260906134528 53 321 0.0 0.0 0.00 0.00 0.00 82 1011.1
20260906133029 53 321 0.0 0.0 0.00 0.00 0.00 82 1011.0
20260906131510 53 321 0.0 0.0 0.00 0.00 0.00 80 1011.0
20260906130010 53 321 0.0 0.0 0.00 0.00 0.00 79 1010.8
20260906124550 53 321 0.0 0.0 0.00 0.00 0.00 79 1010.5
20260906123048 53 321 0.0 0.0 0.00 0.00 0.00 78 1010.4
20260906121529 54 321 0.0 0.0 0.00 0.00 0.00 77 1010.2
20260906120032 54 321 0.0 0.0 0.00 0.00 0.00 77 1010.4
20260906114533 54 321 0.0 0.0 0.00 0.00 0.00 77 1010.3
20260906113020 54 321 0.0 0.0 0.00 0.00 0.00 77 1010.2
20260906111514 54 321 0.0 0.0 0.00 0.00 0.00 76 1009.9
20260906110014 55 321 0.0 0.0 0.00 0.00 0.00 75 1009.9
20260906104517 55 321 0.0 0.0 0.00 0.00 0.00 74 1009.9
20260906103010 55 321 0.0 0.0 0.00 0.00 0.00 74 1009.7
20260906101517 56 321 0.0 0.0 0.00 0.00 0.00 74 1009.8
20260906100006 56 321 0.0 0.0 0.00 0.00 0.00 72 1009.8
20260906094548 56 321 0.0 0.0 0.00 0.00 0.00 71 1010.0
20260906093046 57 321 0.0 0.0 0.00 0.00 0.00 70 1009.8
20260906091528 57 321 0.0 0.0 0.00 0.00 0.00 69 1009.7
20260906090026 58 321 0.0 0.0 0.00 0.00 0.00 68 1009.6
20260906084508 57 321 0.0 0.0 0.00 0.00 0.00 69 1009.7
20260906083007 57 321 0.0 0.0 0.00 0.00 0.00 71 1009.8
20260906081548 58 321 0.0 0.0 0.00 0.00 0.00 69 1009.9
20260906080047 58 321 0.0 0.0 0.00 0.00 0.00 68 1009.9
20260906074526 59 321 0.0 0.0 0.00 0.00 0.00 66 1009.9
20260906073028 59 321 0.0 0.0 0.00 0.00 0.00 66 1009.9
20260906071506 59 321 0.0 0.0 0.00 0.00 0.00 66 1010.1
20260906070003 60 321 0.0 0.0 0.00 0.00 0.00 64 1009.7
20260906064546 61 321 0.0 0.0 0.00 0.00 0.00 63 1010.3
20260906063040 62 321 0.0 0.0 0.00 0.00 0.00 61 1010.1
20260906061520 63 321 0.0 0.0 0.00 0.00 0.00 60 1010.6
20260906060026 63 321 0.0 0.0 0.00 0.00 0.00 59 1010.3
20260906054606 64 321 0.0 0.0 0.00 0.00 0.00 59 1010.8
20260906053101 64 321 0.0 0.0 0.00 0.00 0.00 58 1011.1
20260906051601 64 321 0.0 0.0 0.00 0.00 0.00 59 1011.6
20260906050039 64 321 0.0 0.0 0.00 0.00 0.00 60 1011.5
20260906044519 64 321 0.0 0.0 0.00 0.00 0.00 60 1011.4
20260906043019 64 321 0.0 0.0 0.00 0.00 0.00 60 1011.5
20260906041558 65 321 0.0 0.0 0.00 0.00 0.00 59 1011.0
20260906040134 65 321 0.0 0.0 0.00 0.00 0.00 58 1011.3
20260906034541 66 321 0.0 0.0 0.00 0.00 0.00 58 1011.4
20260906033054 66 321 0.0 0.0 0.00 0.00 0.00 56 1011.3
20260906031539 67 321 0.0 0.0 0.00 0.00 0.00 54 1011.1
20260906030039 68 321 0.0 0.0 0.00 0.00 0.00 52 1011.1
20260906024539 69 321 0.0 0.0 0.00 0.00 0.00 51 1010.9
20260906023037 70 321 0.0 0.0 0.00 0.00 0.00 49 1011.0
20260906021538 71 321 0.0 0.0 0.00 0.00 0.00 47 1011.1
20260906020038 73 321 0.0 0.0 0.00 0.00 0.00 46 1011.1
20260906014536 74 321 0.0 0.0 0.00 0.00 0.00 44 1011.2
20260906013036 75 321 0.0 0.0 0.00 0.00 0.00 44 1011.2
20260906011533 75 321 0.0 0.0 0.00 0.00 0.00 46 1011.2
20260906010031 74 321 0.0 0.0 0.00 0.00 0.00 45 1011.3
20260906004530 75 321 0.0 0.0 0.00 0.00 0.00 45 1011.4
20260906003030 76 321 0.0 0.0 0.00 0.00 0.00 40 1011.4
20260906001532 77 323 0.0 0.0 0.00 0.00 0.00 40 1011.5
20260906000029 76 323 0.0 0.0 0.00 0.00 0.00 41 1011.7
20260905234528 76 323 0.0 0.0 0.00 0.00 0.00 41 1011.8
20260905233025 76 323 0.0 0.0 0.00 0.00 0.00 43 1011.9
20260905231525 77 323 0.0 0.0 0.00 0.00 0.00 42 1011.9
20260905230024 77 321 0.0 0.0 0.00 0.00 0.00 41 1012.0
20260905224504 77 311 0.0 0.0 0.00 0.00 0.00 42 1012.3
20260905223001 77 311 0.0 0.0 0.00 0.00 0.00 42 1012.6